OpenBCM V1.07b12 (Linux)

Packet Radio Mailbox

DB0FHN

[JN59NK Nuernberg]

 Login: GUEST





  
I0OJJ  > KEPS     12.02.25 06:03l 328 Lines 15588 Bytes #999 (0) @ AMSAT
BID : ORB25043.1
Read: DJ6UX GUEST
Subj: 2Line Orbital Elements 25043.AMSAT
Path: DB0FHN<DB0LHR<OK1TOR<OE2XZR<OE6XPE<DB0ERF<DK0WUE<DK0WUE<VK5RSV<PI8ZTM<
      I0OJJ
Sent: 250212/0345z @:I0OJJ.ITA.EU [Rome] obcm1.08-6-g5b69
From: I0OJJ @ I0OJJ.ITA.EU (Gustavo)
To:   KEPS @ AMSAT
X-Info: This message was generated automatically


QST de W1STR

AMSAT Orbital Elements for Amateur Satellites in TLE Format
From Orbital Analysis Office
New England Sci-Tech STEM Education Center
Natick, MA February 12, 2025
To all radio amateurs


These element sets describe the orbits of various satellites 
in use by the amateur radio community. For details see:
www.amsat.org/keplerian-elements-formats/

A daily update of element sets is available at:
www.amsat.org/tle/daily-bulletin.txt
or without bulletin text:
www.amsat.org/tle/dailytle.txt


AO-07
1 07530U 74089B   25042.63466940 -.00000027  00000-0  12152-3 0  9998
2 07530 101.9935  45.6428 0012133 348.5651 120.9798 12.53686094299040
UO-11
1 14781U 84021B   25042.46970907  .00003200  00000-0  34855-3 0  9994
2 14781  97.7391  11.3367 0008317  19.3178 340.8353 14.88670880184063
AO-27
1 22825U 93061C   25042.59168698  .00000242  00000-0  10968-3 0  9998
2 22825  98.7547 103.4722 0009483  98.3427 261.8830 14.30726636636840
FO-29
1 24278U 96046B   25042.60213910  .00000006  00000-0  45359-4 0  9999
2 24278  98.5875 311.9543 0349003 288.2745  68.0719 13.53236767406811
NOAA-15
1 25338U 98030A   25042.86923918  .00000319  00000-0  14901-3 0  9991
2 25338  98.5484  70.7641 0009929 350.0458  10.0525 14.26880707391616
GO-32
1 25397U 98043D   25042.46127289  .00000219  00000-0  11514-3 0  9999
2 25397  98.9568  19.2032 0001511 145.7541 214.3734 14.24251563381475
ISS
1 25544U 98067A   25042.51798308  .00016031  00000-0  28803-3 0  9999
2 25544  51.6349 209.4648 0003968 302.4562  57.6043 15.50022971495679
NO-44
1 26931U 01043C   25042.51493214  .00000403  00000-0  18220-3 0  9994
2 26931  67.0500  73.0759 0006050 263.9884  96.0528 14.31614909220207
SO-50
1 27607U 02058C   25042.54507222  .00002702  00000-0  36168-3 0  9995
2 27607  64.5528 204.7094 0042107   3.9748 356.1682 14.80931062191742
CO-55
1 27844U 03031E   25042.55859718  .00000693  00000-0  32196-3 0  9995
2 27844  98.6788  52.3498 0009963 163.9036 196.2461 14.23814180121846
CO-57
1 27848U 03031J   25042.45276813  .00000627  00000-0  29688-3 0  9996
2 27848  98.6815  52.3381 0009531 180.6518 179.4650 14.23175638121564
RS-22
1 27939U 03042A   25042.82333017  .00002339  00000-0  38282-3 0  9992
2 27939  98.3129 209.5484 0012023  27.3667 109.7010 14.71744832143507
NOAA-18
1 28654U 05018A   25042.76929474  .00000349  00000-0  20843-3 0  9996
2 28654  98.8518 123.5424 0015175 104.0353 256.2508 14.13512473 17100
CO-58
1 28895U 05043F   25042.33673647  .00003585  00000-0  60342-3 0  9995
2 28895  98.2283 185.4078 0014279 324.4677  35.5576 14.70135219 29561
CO-65
1 32785U 08021C   25042.87019000  .00009318  00000-0  71199-3 0  9995
2 32785  97.7678  13.4370 0008988 250.0372 109.9885 15.02141038911467
AAUSAT2
1 32788U 08021F   25042.50264275  .00098760  00000-0  19206-2 0  9993
2 32788  97.6050  34.0359 0007233  80.0433 280.1632 15.47211299915002
CO-66
1 32791U 08021J   25042.86382773  .00017784  00000-0  98658-3 0  9996
2 32791  97.7178  20.7481 0003822 174.6755 185.4517 15.13818968912738
RS-30
1 32953U 08025A   25042.82170425  .00000045  00000-0  25511-3 0  9995
2 32953  82.5040 300.4377 0018983 304.8965  55.0330 12.43158570758902
NOAA-19
1 33591U 09005A   25042.82733037  .00000311  00000-0  19018-3 0  9998
2 33591  99.0141 106.7983 0013245 340.0213  20.0439 14.13282563825478
SRMSAT
1 37841U 11058D   25042.59437977  .00000593  00000-0  17878-3 0  9993
2 37841  19.9710 148.4919 0011601 206.8692 181.3186 14.11358825688648
ZACUBE-1
1 39417U 13066B   25042.84762849  .00007663  00000-0  69895-3 0  9993
2 39417  97.7662   0.7530 0048170  85.2730 275.3989 14.94482338607319
Delfi-N3xt
1 39428U 13066N   25042.74618090  .00012467  00000-0  13493-2 0  9992
2 39428  97.8384 321.9352 0090648  29.0363 331.5850 14.85384576601746
GOMX-1
1 39430U 13066Q   25042.71411290  .00003921  00000-0  62333-3 0  9998
2 39430  97.7000 268.5528 0133525 209.0086 150.3654 14.66775032598124
LO-74
1 39440U 13066AA  25042.81996898  .00005406  00000-0  57210-3 0  9990
2 39440  97.8384 348.4280 0063336 206.7792 153.0151 14.88104485605116
AO-73
1 39444U 13066AE  25042.81858146  .00011959  00000-0  96838-3 0  9996
2 39444  97.7491   4.7513 0043525  62.7610 297.8037 14.99128887606515
DTUSAT-2
1 40030U 14033W   25042.83235567  .00011116  00000-0  78018-3 0  9997
2 40030  98.0427   9.2955 0012259  96.8700 263.3920 15.05282117579174
EO-80
1 40032U 14033Y   25042.46035938  .00012948  00000-0  90633-3 0  9999
2 40032  98.0294   8.7221 0010410  48.7582 311.4538 15.05357903578589
XW-2C
1 40906U 15049H   25042.80722895  .01183956  90738-3  12009-2 0  9999
2 40906  97.4405  78.2554 0003876 177.1746 182.9560 16.11150885521856
LILACSAT-2
1 40908U 15049K   25042.84003550  .00015305  00000-0  45570-3 0  9996
2 40908  97.5159  60.6097 0008914 212.1420 147.9281 15.34761235520142
IO-86
1 40931U 15052B   25038.81889873  .00001817  00000-0  15548-3 0  9993
2 40931   6.0001 108.1159 0012838 187.7041 172.2889 14.78568669506492
Horyu-4
1 41340U 16012D   25042.72870611  .00026351  00000-0  89267-3 0  9999
2 41340  30.9977 200.3243 0005937 282.4385  77.5594 15.29359822494683
Lapan A3
1 41603U 16040E   25042.78492502  .00005227  00000-0  19094-3 0  9997
2 41603  97.1390  52.1048 0010412 339.5596  20.5226 15.28468799479784
CAS-2T
1 41847U 16066G   25042.61676610  .00003234  00000-0  46945-3 0  9992
2 41847  98.4334 118.0907 0348437 175.0617 185.4162 14.42905162434001
CAS-4B
1 42759U 17034B   25042.87455974  .00042424  00000-0  81356-3 0  9996
2 42759  43.0117 294.9420 0016705 194.7729 165.2644 15.47148115424277
CAS-4A
1 42761U 17034D   25042.84075779  .00043125  00000-0  81340-3 0  9999
2 42761  43.0152 293.0981 0018194 200.5146 159.4984 15.47590047424282
TechnoSat
1 42829U 17042E   25042.52437115  .00005204  00000-0  41921-3 0  9991
2 42829  97.3890 216.9508 0012058 334.1775  25.8846 15.00278927413013
AO-91
1 43017U 17073E   25042.58148298  .00013267  00000-0  72129-3 0  9994
2 43017  97.5494 276.4258 0181355 207.8306 151.3127 15.01531096391484
S-Net D
1 43186U 18014G   25042.68198398  .00008933  00000-0  55721-3 0  9997
2 43186  97.5739 306.8824 0007754 271.1065  88.9275 15.09729298384578
S-Net B
1 43187U 18014H   25042.68600205  .00008725  00000-0  54447-3 0  9996
2 43187  97.5744 306.8519 0008478 265.2691  94.7570 15.09714241384574
S-Net A
1 43188U 18014J   25042.21878628  .00009495  00000-0  59197-3 0  9994
2 43188  97.5751 306.5255 0008384 267.9740  92.0529 15.09726011384503
S-Net C
1 43189U 18014K   25042.62185510  .00008305  00000-0  51839-3 0  9995
2 43189  97.5767 306.9176 0009962 257.3874 102.6241 15.09710145383117
Ten-Koh
1 43677U 18084G   25042.73065151  .00005254  00000-0  43432-3 0  9994
2 43677  98.0828 210.3233 0011035 300.6455  59.3679 14.99352638342571
PO-101
1 43678U 18084H   25042.88398979  .00003569  00000-0  31318-3 0  9995
2 43678  98.0918 214.6470 0007643 325.0108  35.0610 14.97279611342762
QO-100
1 43700U 18090A   25042.37683602  .00000133  00000-0  00000-0 0  9997
2 43700   0.0133  89.9369 0001311 242.9010 330.2305  1.00273079 22752
MinXSS-2
1 43758U 18099A   25042.60458639  .00020351  00000-0  94393-3 0  9990
2 43758  97.5197 108.6205 0012996 207.1818 152.8737 15.20009289339018
AO-95
1 43770U 18099N   25042.60631241  .00012900  00000-0  71935-3 0  9994
2 43770  97.5109 102.1641 0010333 260.0457  99.9608 15.13664409338681
RANGE-A
1 43773U 18099R   25042.57578996  .00006703  00000-0  44908-3 0  9994
2 43773  97.4671  94.4272 0010686 232.5098 127.5158 15.07162710338438
MOVE-II
1 43780U 18099Y   25042.15177605  .00072246  00000-0  17193-2 0  9998
2 43780  97.4844 112.2800 0004139 215.5022 144.5950 15.41356240339383
SNUSat 2
1 43782U 18099AA  25042.70947188  .00011604  00000-0  68541-3 0  9997
2 43782  97.4791  99.9271 0012522 196.3056 163.7773 15.11595640338670
SnugLite
1 43784U 18099AC  25042.59461376  .00012964  00000-0  71769-3 0  9992
2 43784  97.4606  99.1847 0003487 186.3865 173.7323 15.13958806338766
ITASat 1
1 43786U 18099AE  25042.59959176  .00009375  00000-0  57371-3 0  9999
2 43786  97.4758  99.6420 0013839 251.5209 108.4517 15.10353055338635
EAGLET 1
1 43790U 18099AJ  25042.59465279  .00006062  00000-0  40516-3 0  9993
2 43790  97.4948  99.9194 0011461 229.6753 130.3474 15.07287392338284
ESEO
1 43792U 18099AL  25042.57230327  .00002989  00000-0  23366-3 0  9995
2 43792  97.4612  94.6746 0010300 192.4235 167.6738 15.01778654338109
CSIM
1 43793U 18099AM  25042.46286422  .00082159  00000-0  19468-2 0  9995
2 43793  97.5021 114.5686 0007386 191.2939 168.8142 15.41425553339270
JO-97
1 43803U 18099AX  25042.39784586  .00016477  00000-0  84780-3 0  9993
2 43803  97.4854 102.7638 0007978 190.0551 170.0523 15.16480883338833
Suomi 100
1 43804U 18099AY  25042.57603476  .00015281  00000-0  82624-3 0  9999
2 43804  97.4922 102.5150 0013116 193.7041 166.3837 15.14695931338816
ISAT
1 43879U 18111D   25042.25983712  .00024864  00000-0  10582-2 0  9995
2 43879  97.6046 314.5738 0007815 248.3626 111.6778 15.22961697335648
UWE-4
1 43880U 18111E   25042.17721161  .00021353  00000-0  98165-3 0  9990
2 43880  97.5982 313.6763 0011237 263.8910  96.1044 15.20326085335600
Sparrow
1 43881U 18111F   25041.73325156  .00028706  00000-0  11907-2 0  9993
2 43881  97.6169 316.5101 0005874 307.0758  52.9941 15.23813619333643
Prox-1
1 44339U 19036A   25042.48313305  .00017253  00000-0  24151-2 0  9995
2 44339  23.9978 115.3877 0008243 160.6002 199.4808 14.75932908300524
SONATE
1 44400U 19038Q   25042.57260777  .00070125  00000-0  91836-3 0  9992
2 44400  97.7093  57.1688 0007925 339.6164  20.4774 15.58331357311021
